Onweer radar Meer informatie blitzortung!


Regen radar Meer informatie rain snow radar


Bezoek onze andere website:

Template documentation
and downloads

And another site



15 daagse weersverwachting Milano (IT)

  • Overzicht
  • Per uur
  • 15 dagen
  • Extra
  • Vergelijk
  • Kaarten
  • Dagkaart
  • Meer »
  • Info
  • Statistieken
  • Directe link
    Temp 6h Neerslag Wind  
 06:09     20:51    Daglengte: 14:42 Morgen
02:00
22°
11.2 mm
1
warningclass
08:00
20°
10.5 mm
2
warningclass
14:00
25°
5.0 mm
1
20:00
23°
6.0 mm
2
 06:10     20:49    Daglengte: 14:39 Maandag 02 Aug
02:00
19°
 
1
08:00
18°
 
1
14:00
25°
 
2
20:00
26°
 
1
 06:12     20:48    Daglengte: 14:36 Dinsdag 03 Aug
02:00
19°
13.8 mm
2
warningclass
08:00
19°
17.0 mm
3
warningclass
14:00
24°
13.6 mm
2
20:00
22°
26.7 mm
0
Locatie info
Region: Lombardia
Latitude: 45.4680°N
Longitude: 9.1818°E
127 masl
Postcode: 20121
Temp/Neerslag /Baro Onweer/Dauwpunt
    Temp Baro 1h Neerslag Dauwpunt Wind UV Bewolking  
 06:09     20:51    Daglengte: 14:42 Morgen
00:00
22°
1005.3 hPa 9.3 mm
49%
19.5°
1
Windvlaag: -1.2 m/s
84%
01:00
22°
1004.9 hPa 1.1 mm
80%
19.7°
2
Windvlaag: -2.3 m/s
69% warningclass
02:00
22°
1005.0 hPa 0.8 mm
77%
19.6°
1
Windvlaag: 2.3 m/s
73% warningclass
03:00
21°
1005.0 hPa 1.3 mm
76%
19.6°
2
Windvlaag: -3.3 m/s
86% warningclass
04:00
21°
1004.5 hPa 1.3 mm
77%
18.3°
2
Windvlaag: -3.4 m/s
84% warningclass
05:00
20°
1003.5 hPa 1.6 mm
82%
17.7°
2
Windvlaag: -4.2 m/s
77% warningclass
06:00
20°
1003.5 hPa 1.8 mm
82%
18.0°
2
Windvlaag: -4.3 m/s
85% warningclass
07:00
20°
1003.7 hPa 2.3 mm
82%
18.2°
2
Windvlaag: -4 m/s
53% warningclass
08:00
20°
1004.1 hPa 2.2 mm
82%
18.4°
2
Windvlaag: -2.9 m/s
60% warningclass
09:00
21°
1004.5 hPa 1.6 mm
82%
19.0°
2
Windvlaag: -6.4 m/s
40% warningclass
10:00
22°
1004.6 hPa 1.6 mm
82%
18.7°
2
Windvlaag: -7.2 m/s
62% warningclass
11:00
22°
1004.9 hPa 1.8 mm
82%
16.4°
3
Windvlaag: -7.8 m/s
54% warningclass
12:00
23°
1004.9 hPa
74%
14.0°
2
Windvlaag: -5.7 m/s
51%
13:00
25°
1004.7 hPa
34%
14.3°
1
Windvlaag: -1.5 m/s
53%
14:00
25°
1004.7 hPa
80%
14.2°
1
Windvlaag: 3.6 m/s
62%
15:00
25°
1004.8 hPa
79%
13.5°
2
Windvlaag: 5.3 m/s
41%
16:00
25°
1004.7 hPa
44%
12.0°
1
Windvlaag: 5.4 m/s
38%
17:00
26°
1004.8 hPa 1.5 mm
82%
11.5°
2
Windvlaag: -3.1 m/s
44%
18:00
25°
1005.1 hPa 2.7 mm
82%
11.7°
3
Windvlaag: -1.8 m/s
17%
19:00
24°
1005.4 hPa
37%
12.6°
2
Windvlaag: 5.8 m/s
9%
20:00
23°
1005.7 hPa 1.8 mm
67%
14.6°
2
Windvlaag: 2.3 m/s
12%
21:00
22°
1006.2 hPa
15%
16.3°
1
Windvlaag: -1.3 m/s
9%
22:00
22°
1007.0 hPa
14%
17.3°
2
Windvlaag: -1.2 m/s
8%
23:00
21°
1007.6 hPa
14%
17.5°
1
Windvlaag: -0.2 m/s
0%
 06:10     20:49    Daglengte: 14:39 Maandag 02 Aug
00:00
20°
1008.1 hPa
14%
16.9°
1
Windvlaag: 1 m/s
1%
01:00
20°
1008.0 hPa
14%
16.3°
1
Windvlaag: -0 m/s
3%
02:00
19°
1008.3 hPa
14%
15.3°
1
Windvlaag: -1 m/s
11%
03:00
18°
1008.7 hPa
14%
14.7°
1
Windvlaag: -0.5 m/s
9%
04:00
18°
1008.8 hPa
14%
14.3°
1
Windvlaag: -0.8 m/s
25%
05:00
17°
1009.1 hPa
14%
13.6°
1
Windvlaag: -1 m/s
24%
06:00
17°
1009.7 hPa
17%
13.9°
1
Windvlaag: -1.1 m/s
20%
07:00
18°
1010.4 hPa
18%
14.2°
1
Windvlaag: -1 m/s
15%
08:00
18°
1010.9 hPa
14%
14.6°
1
Windvlaag: 0.3 m/s
18%
09:00
20°
1011.2 hPa
14%
15.0°
1
Windvlaag: 2.4 m/s
6%
10:00
21°
1011.6 hPa
17%
15.7°
1
Windvlaag: 2.1 m/s
13%
11:00
23°
1012.2 hPa
56%
16.0°
1
Windvlaag: 1.2 m/s
21%
12:00
24°
1012.1 hPa
22%
15.8°
1
Windvlaag: 1.6 m/s
18%
13:00
25°
1012.1 hPa
20%
15.1°
2
Windvlaag: 2.1 m/s
17%
14:00
25°
1011.7 hPa
20%
14.9°
2
Windvlaag: 1.8 m/s
6%
15:00
26°
1011.7 hPa
55%
14.4°
2
Windvlaag: 1.5 m/s
14%
16:00
26°
1011.6 hPa
63%
14.2°
2
Windvlaag: 0.7 m/s
0%
17:00
26°
Voelt als: 25.8°
1010.8 hPa
30%
3.6°
1
Windvlaag: -0.1 m/s
0%
18:00
27°
Voelt als: 25.9°
1010.5 hPa
21%
3.7°
1
Windvlaag: -0.2 m/s
0%
19:00
26°
Voelt als: 25.8°
1010.7 hPa
23%
4.0°
1
Windvlaag: 1.2 m/s
0%
20:00
26°
Voelt als: 25.4°
1010.7 hPa
21%
4.0°
1
Windvlaag: 0.7 m/s
2%
21:00
24°
1011.4 hPa 2.7 mm
25%
3.3°
2
Windvlaag: -0.5 m/s
29%
22:00
23°
1011.9 hPa 4.4 mm
26%
4.4°
1
Windvlaag: 1.8 m/s
40%
23:00
21°
1012.8 hPa
84%
5.7°
3
Windvlaag: 0.6 m/s
23%
 06:12     20:48    Daglengte: 14:36 Dinsdag 03 Aug
00:00
21°
1013.3 hPa 2.5 mm
43%
6.8°
2
Windvlaag: 1.1 m/s
24%
01:00
20°
1013.6 hPa 2.4 mm
91%
8.5°
2
Windvlaag: 0.8 m/s
37%
02:00
19°
1013.6 hPa 1.9 mm
100%
10.1°
2
Windvlaag: 0.3 m/s
59% warningclass
03:00
19°
1013.3 hPa 3.6 mm
97%
11.1°
2
Windvlaag: -0.5 m/s
57%
04:00
19°
1013.6 hPa 2.8 mm
92%
10.4°
2
Windvlaag: -1.5 m/s
33%
05:00
19°
1013.5 hPa 2.5 mm
88%
10.0°
2
Windvlaag: -1.8 m/s
33%
06:00
19°
1014.0 hPa 2.8 mm
100%
9.9°
2
Windvlaag: -1.9 m/s
50%
07:00
19°
1014.2 hPa 2.5 mm
52%
8.8°
2
Windvlaag: -1.4 m/s
70%
08:00
19°
1014.7 hPa 2.9 mm
99%
9.1°
3
Windvlaag: 1 m/s
53% warningclass
09:00
20°
1014.3 hPa 2.9 mm
98%
10.5°
3
Windvlaag: 0.2 m/s
45%
10:00
21°
1014.3 hPa 3.0 mm
95%
10.9°
3
Windvlaag: 0.3 m/s
73%
11:00
22°
1014.0 hPa 1.7 mm
100%
10.6°
3
Windvlaag: 0.5 m/s
73%
12:00
22°
1013.4 hPa 2.0 mm
100%
9.6°
2
Windvlaag: 1.1 m/s
68%
13:00
23°
1012.9 hPa 2.0 mm
100%
9.4°
2
Windvlaag: 3.8 m/s
57% warningclass
14:00
24°
1011.9 hPa 2.0 mm
100%
8.8°
2
Windvlaag: 4 m/s
60%
15:00
24°
1013.4 hPa 2.4 mm
100%
9.0°
1
Windvlaag: 6.4 m/s
98%
16:00
23°
1013.1 hPa 4.6 mm
100%
9.4°
2
Windvlaag: 5.6 m/s
47% warningclass
17:00
23°
1012.9 hPa 3.6 mm
98%
14.6°
3
Windvlaag: 11.5 m/s
75% warningclass
18:00
22°
1012.7 hPa 5.5 mm
100%
15.5°
2
Windvlaag: 8.1 m/s
46% warningclass
19:00
22°
1012.4 hPa 5.9 mm
95%
12.0°
1
Windvlaag: 5.2 m/s
53%
20:00
22°
1012.5 hPa 4.6 mm
96%
10.4°
0
Windvlaag: 2.8 m/s
82%
21:00
25°
1011.1 hPa 13.5 mm
100%
13.1°
1
Windvlaag: 1.9 m/s
80%
22:00
25°
1011.3 hPa 13.5 mm
100%
13.7°
1
Windvlaag: 1.3 m/s
79%
23:00
24°
1011.4 hPa 13.5 mm
100%
14.2°
2
Windvlaag: 1.7 m/s
82%
Temp/Neerslag /Baro Onweer/Dauwpunt
    Temp Baro Neerslag Dauwpunt Wind Bewolking  
 06:09     20:51    Daglengte: 14:42 Morgen
02:00
22°
1005.0 hPa 11.2 mm 19.6°
1
73% warningclass
05:00
20°
1003.5 hPa 4.2 mm 17.7°
2
77% warningclass
08:00
20°
1004.1 hPa 6.3 mm 18.4°
2
60% warningclass
11:00
22°
1004.9 hPa 5.0 mm 16.4°
3
54% warningclass
14:00
25°
1004.7 hPa   14.2°
1
62%
17:00
26°
1004.8 hPa 1.5 mm 11.5°
2
44%
20:00
23°
1005.7 hPa 4.4 mm 14.6°
2
12%
23:00
21°
1007.6 hPa   17.5°
1
0%
 06:10     20:49    Daglengte: 14:39 Maandag 02 Aug
02:00
19°
1008.3 hPa   15.3°
1
11%
05:00
17°
1009.1 hPa   13.6°
1
24%
08:00
18°
1010.9 hPa   14.6°
1
18%
11:00
23°
1012.2 hPa   16.0°
1
21%
14:00
25°
1011.7 hPa   14.9°
2
6%
17:00
26°
Voelt als: 25.8°
1010.8 hPa   3.6°
1
0%
20:00
26°
Voelt als: 25.4°
1010.7 hPa   4.0°
1
2%
23:00
21°
1012.8 hPa 7.1 mm 5.7°
3
23%
 06:12     20:48    Daglengte: 14:36 Dinsdag 03 Aug
02:00
19°
1013.6 hPa 6.7 mm 10.1°
2
59% warningclass
05:00
19°
1013.5 hPa 8.8 mm 10.0°
2
33%
08:00
19°
1014.7 hPa 8.2 mm 9.1°
3
53% warningclass
11:00
22°
1014.0 hPa 7.6 mm 10.6°
3
73%
14:00
24°
1011.9 hPa 6.0 mm 8.8°
2
60%
17:00
23°
1012.9 hPa 10.6 mm 14.6°
3
75% warningclass
20:00
22°
1012.5 hPa 16.1 mm 10.4°
0
82%
23:00
24°
1011.4 hPa 40.6 mm 14.2°
2
82%
 06:13     20:47    Daglengte: 14:34 Woensdag 04 Aug
02:00
23°
1011.7 hPa 40.6 mm 15.5°
1
95%
05:00
19°
1012.1 hPa 30.9 mm 16.9°
0
1%
08:00
18°
1012.8 hPa 32.6 mm 17.1°
1
1%
11:00
18°
1013.2 hPa 34.8 mm 17.5°
1
1%
14:00
20°
1012.7 hPa 36.3 mm 18.0°
2
1%
17:00
23°
1011.5 hPa 38.0 mm 18.7°
1
0%
20:00
21°
1010.5 hPa 42.1 mm 18.3°
1
1%
23:00
18°
1010.8 hPa 44.9 mm 17.1°
1
1%
 06:14     20:45    Daglengte: 14:31 Donderdag 05 Aug
02:00
17°
1010.7 hPa 49.9 mm 16.1°
1
1%
05:00
16°
1010.6 hPa 50.5 mm 15.3°
1
0%
08:00
17°
1011.2 hPa 50.5 mm 15.4°
1
0%
11:00
22°
1010.9 hPa 50.5 mm 16.1°
1
0%
14:00
25°
1009.8 hPa 50.5 mm 15.6°
0
1%
17:00
24°
1008.0 hPa 50.5 mm 15.7°
1
1%
20:00
22°
1007.8 hPa 50.5 mm 15.6°
2
1%
23:00
20°
1007.3 hPa 50.5 mm 13.8°
1
1%
 06:15     20:44    Daglengte: 14:29 Vrijdag 06 Aug
02:00
18°
1007.4 hPa 50.5 mm 14.0°
1
1%
05:00
17°
1006.9 hPa 50.5 mm 13.7°
0
0%
08:00
18°
1007.8 hPa 50.5 mm 13.9°
1
0%
11:00
23°
1008.3 hPa 50.5 mm 15.7°
1
0%
14:00
26°
1007.1 hPa 50.5 mm 15.9°
1
0%
17:00
27°
1006.1 hPa 50.5 mm 14.6°
1
0%
20:00
24°
1006.6 hPa 50.5 mm 16.6°
0
0%
23:00
21°
1009.1 hPa 50.5 mm 15.4°
1
0%
 06:16     20:42    Daglengte: 14:26 Zaterdag 07 Aug
02:00
19°
1010.6 hPa 50.5 mm 15.6°
2
0%
05:00
19°
1011.1 hPa 50.5 mm 15.1°
2
0%
08:00
20°
1012.5 hPa 50.5 mm 15.7°
1
0%
11:00
24°
1013.4 hPa 50.5 mm 15.7°
1
1%
14:00
27°
1012.7 hPa 50.6 mm 16.4°
1
0%
17:00
27°
1012.4 hPa 50.6 mm 16.2°
1
1%
20:00
25°
1012.7 hPa 50.6 mm 17.6°
1
1%
23:00
22°
1014.3 hPa   16.4°
1
0%
 06:17     20:41    Daglengte: 14:24 Zondag 08 Aug
02:00
21°
1015.0 hPa 101.2 mm 16.3°
1
0%
08:00
22°
1015.9 hPa 101.2 mm 16.7°
1
1%
14:00
30°
1015.5 hPa 101.2 mm 17.5°
1
0%
20:00
27°
1014.1 hPa 101.2 mm 18.0°
1
0%
 06:19     20:39    Daglengte: 14:20 Maandag 09 Aug
02:00
22°
1015.5 hPa 101.2 mm 16.7°
2
0%
08:00
22°
1016.0 hPa 101.2 mm 16.8°
1
0%
14:00
31°
Voelt als: 30.7°
1014.9 hPa 101.2 mm 15.4°
2
1%
20:00
28°
Voelt als: 27.9°
1014.5 hPa 101.2 mm 14.3°
2
0%
 06:20     20:38    Daglengte: 14:18 Dinsdag 10 Aug
02:00
20°
1019.6 hPa 101.6 mm 18.3°
4
0%
08:00
21°
1020.8 hPa 101.9 mm 11.3°
1
0%
14:00
29°
Voelt als: 28.4°
1018.9 hPa 101.9 mm 13.5°
2
1%
20:00
29°
Voelt als: 28.7°
1016.7 hPa 0.2 mm 14.4°
1
29%
 06:21     20:36    Daglengte: 14:15 Woensdag 11 Aug
02:00
23°
1018.6 hPa 0.8 mm 13.7°
2
26%
08:00
22°
1018.5 hPa 0.8 mm 13.4°
1
23%
14:00
30°
Voelt als: 29.6°
1016.6 hPa 0.5 mm 12.8°
1
27%
20:00
28°
Voelt als: 27.9°
1016.1 hPa 0.2 mm 13.4°
1
26%
 06:22     20:35    Daglengte: 14:13 Donderdag 12 Aug
02:00
23°
1018.0 hPa 1.2 mm 12.9°
2
33%
08:00
22°
1018.1 hPa 0.6 mm 12.8°
1
33%
14:00
30°
Voelt als: 29.2°
1016.7 hPa 0.4 mm 12.8°
1
33%
20:00
28°
Voelt als: 27.6°
1016.5 hPa 0.4 mm 13.1°
1
25%
 06:23     20:33    Daglengte: 14:10 Vrijdag 13 Aug
02:00
22°
1018.5 hPa 0.5 mm 12.2°
2
22%
08:00
22°
1018.6 hPa 0.5 mm 12.4°
1
19%
14:00
31°
Voelt als: 29.6°
1017.1 hPa 0.5 mm 12.0°
1
20%
20:00
28°
Voelt als: 27.8°
1016.7 hPa 0.2 mm 12.6°
1
22%
 06:25     20:32    Daglengte: 14:07 Zaterdag 14 Aug
02:00
23°
1018.7 hPa 0.2 mm 12.2°
2
22%
08:00
22°
1018.4 hPa 0.2 mm 12.2°
1
18%
14:00
31°
Voelt als: 29.7°
1016.3 hPa   12.1°
1
17%
20:00
29°
Voelt als: 28.0°
1015.7 hPa 0.1 mm 12.4°
0
17%
 06:26     20:30    Daglengte: 14:04 Zondag 15 Aug
02:00
23°
1017.5 hPa 0.6 mm 13.1°
2
22%
08:00
22°
1017.1 hPa 0.6 mm 13.0°
1
16%
14:00
31°
Voelt als: 30.1°
1015.0 hPa 0.3 mm 12.4°
1
20%
20:00
29°
Voelt als: 28.2°
1014.6 hPa 0.1 mm 12.7°
1
22%
  CAPE Lifted Index Hail Supercell Tornado SRH 3km CL BTM PRES CL TOP PRES Swiss DWD icon SMHI TS
 06:09     20:51    Daglengte: 14:42 Morgen
00:00 0 J/kg -4.1 K 0 % 0 % 0 % 0 m²/s² 0 0 -2.48 95
01:00 314 J/kg -5.6 K 0 % 0 % 0 % 0 m²/s² 0 0 -4.04 95
02:00 816 J/kg -6.8 K 0 % 0 % 0 % 0 m²/s² 0 0 -4.79 95
03:00 1114 J/kg -7.4 K 0 % 0 % 0 % 0 m²/s² 0 0 -5.66 95
04:00 1048 J/kg -7.5 K 0 % 0 % 0 % 0 m²/s² 0 0 -6.18 80
05:00 818 J/kg -7.1 K 0 % 0 % 0 % 0 m²/s² 0 0 -5.18 95
06:00 915 J/kg -6.6 K 0 % 0 % 0 % 0 m²/s² 0 0 -3.99 95
07:00 869 J/kg -6.6 K 0 % 0 % 0 % 0 m²/s² 0 0 -4.26 95
08:00 610 J/kg -6.0 K 0 % 0 % 0 % 0 m²/s² 0 0 -4.02 80
09:00 637 J/kg -4.0 K 0 % 0 % 0 % 0 m²/s² 0 0 -2.5 80
10:00 890 J/kg -4.2 K 0 % 0 % 0 % 0 m²/s² 0 0 -3.24 3
11:00 1068 J/kg -4.4 K 0 % 0 % 0 % 0 m²/s² 0 0 -3.59 80
12:00 833 J/kg -3.7 K 0 % 0 % 0 % 0 m²/s² 0 0 -2.23 3
13:00 791 J/kg -3.7 K 0 % 0 % 0 % 0 m²/s² 0 0 -2.17 3
14:00 769 J/kg -3.7 K 0 % 0 % 0 % 0 m²/s² 0 0 -1.72 3
15:00 629 J/kg -3.4 K 0 % 0 % 0 % 0 m²/s² 0 0 -1.24 3
16:00 536 J/kg -3.1 K 0 % 0 % 0 % 0 m²/s² 0 0 -1.75 3
17:00 142 J/kg -1.3 K 0 % 0 % 0 % 0 m²/s² 0 0 0.29 80
18:00 0 J/kg -0.4 K 0 % 0 % 0 % 0 m²/s² 0 0 1.49 2
19:00 4 J/kg -1.0 K 0 % 0 % 0 % 0 m²/s² 0 0 -0.1 80
20:00 0 J/kg -0.3 K 0 % 0 % 0 % 0 m²/s² 0 0 0.75 0
21:00 10 J/kg -0.4 K 0 % 0 % 0 % 0 m²/s² 0 0 0.89 0
22:00 0 J/kg 0.4 K 0 % 0 % 0 % 0 m²/s² 0 0 2.41 3
23:00 0 J/kg 0.7 K 0 % 0 % 0 % 0 m²/s² 0 0 2.92 0
 06:10     20:49    Daglengte: 14:39 Maandag 02 Aug
00:00 0 J/kg 1.2 K 0 % 0 % 0 % 0 m²/s² 0 0 3.21 0
01:00 0 J/kg 1.0 K 0 % 0 % 0 % 0 m²/s² 0 0 2.59 0
02:00 0 J/kg 0.6 K 0 % 0 % 0 % 0 m²/s² 0 0 2.22 1
03:00 0 J/kg 0.3 K 0 % 0 % 0 % 0 m²/s² 0 0 1.86 45
04:00 0 J/kg 0.0 K 0 % 0 % 0 % 0 m²/s² 0 0 1.5 45
05:00 4 J/kg 0.4 K 0 % 0 % 0 % 0 m²/s² 0 0 1.96 45
06:00 0 J/kg 1.2 K 0 % 0 % 0 % 0 m²/s² 0 0 2.7 45
07:00 0 J/kg 2.2 K 0 % 0 % 0 % 0 m²/s² 0 0 3.76 45
08:00 0 J/kg 2.7 K 0 % 0 % 0 % 0 m²/s² 0 0 4.2 45
09:00 0 J/kg 2.5 K 0 % 0 % 0 % 0 m²/s² 0 0 4 2
10:00 0 J/kg 2.3 K 0 % 0 % 0 % 0 m²/s² 0 0 4.04 2
11:00 0 J/kg 2.7 K 0 % 0 % 0 % 0 m²/s² 0 0 4.68 2
12:00 0 J/kg 2.1 K 0 % 0 % 0 % 0 m²/s² 0 0 4.35 3
13:00 0 J/kg 1.4 K 0 % 0 % 0 % 0 m²/s² 0 0 4.01 3
14:00 0 J/kg 1.3 K 0 % 0 % 0 % 0 m²/s² 0 0 4.51 3
15:00 0 J/kg 1.2 K 0 % 0 % 0 % 0 m²/s² 0 0 5.16 2
16:00 0 J/kg 1.1 K 0 % 0 % 0 % 0 m²/s² 0 0 5.18 1
17:00 0 J/kg 0.9 K 0 % 0 % 0 % 0 m²/s² 0 0 4.5 1
18:00 0 J/kg 1.1 K 0 % 0 % 0 % 0 m²/s² 0 0 3.98 1
19:00 0 J/kg 0.8 K 0 % 0 % 0 % 0 m²/s² 0 0 3.02 1
20:00 0 J/kg 0.8 K 0 % 0 % 0 % 0 m²/s² 0 0 2.39 2
21:00 0 J/kg 0.7 K 0 % 0 % 0 % 0 m²/s² 0 0 1.78 1
22:00 0 J/kg 0.8 K 0 % 0 % 0 % 0 m²/s² 0 0 2.12 1
23:00 0 J/kg 0.5 K 0 % 0 % 0 % 0 m²/s² 0 0 2.27 1
 06:12     20:48    Daglengte: 14:36 Dinsdag 03 Aug
00:00 0 J/kg 0.4 K 0 % 0 % 0 % 0 m²/s² 0 0 1.75 1
01:00 108 J/kg -1.1 K 0 % 0 % 0 % 0 m²/s² 0 0 0.1 3
02:00 399 J/kg -2.1 K 0 % 0 % 0 % 0 m²/s² 0 0 -0.96 95
03:00 565 J/kg -2.8 K 0 % 0 % 0 % 0 m²/s² 0 0 -1.51 80
04:00 200 J/kg -2.7 K 0 % 0 % 0 % 0 m²/s² 0 0 -0.81 3
05:00 107 J/kg -1.7 K 0 % 0 % 0 % 0 m²/s² 0 0 0.58 3
06:00 7 J/kg -0.6 K 0 % 0 % 0 % 0 m²/s² 0 0 2.04 80
07:00 0 J/kg -1.3 K 0 % 0 % 0 % 0 m²/s² 0 0 1.85 3
08:00 0 J/kg -2.4 K 0 % 0 % 0 % 0 m²/s² 0 0 0.48 95
09:00 0 J/kg -1.2 K 0 % 0 % 0 % 0 m²/s² 0 0 1.62 80
10:00 116 J/kg -1.5 K 0 % 0 % 0 % 0 m²/s² 0 0 1.47 80
11:00 250 J/kg -2.0 K 0 % 0 % 0 % 0 m²/s² 0 0 1.24 80
12:00 277 J/kg -2.1 K 0 % 0 % 0 % 0 m²/s² 0 0 1.14 80
13:00 342 J/kg -2.5 K 0 % 0 % 0 % 0 m²/s² 0 0 0.23 95
14:00 426 J/kg -2.4 K 0 % 0 % 0 % 0 m²/s² 0 0 -0.24 80
15:00 521 J/kg -2.9 K 0 % 0 % 0 % 0 m²/s² 0 0 -1.43 3
16:00 680 J/kg -3.3 K 0 % 0 % 0 % 0 m²/s² 0 0 -2.4 95
17:00 125 J/kg -0.7 K 0 % 0 % 0 % 0 m²/s² 0 0 -0.7 95
18:00 0 J/kg -1.3 K 0 % 0 % 0 % 0 m²/s² 0 0 -0.73 95
19:00 0 J/kg -1.7 K 0 % 0 % 0 % 0 m²/s² 0 0 -0.98 81
20:00 0 J/kg -2.3 K 0 % 0 % 0 % 0 m²/s² 0 0 -2.27 80
21:00 0 J/kg -2.3 K 0 % 0 % 0 % 0 m²/s² 0 0 -1.58
22:00 0 J/kg -1.8 K 0 % 0 % 0 % 0 m²/s² 0 0 -0.99
23:00 0 J/kg -1.6 K 0 % 0 % 0 % 0 m²/s² 0 0 -0.79
Temp Baro Wind Neerslag
  EWN Forecast EWN WRFDA DWD ICON FMI HIRLAM MET Norway GFS
 06:09     20:51    Daglengte: 14:42 Morgen
02:00 21.5° 1005.0 hPa 1.5 m/s 11.2 mm 23.2° 1005.3 hPa 2.7 m/s 1.5 mm 19.8° 1008.3 hPa 2.0 m/s 22.1 mm 21.4° 1003.8 hPa 1.3 m/s 0.0 mm 20.0° 1006.5 hPa 0.9 m/s
05:00 20.5° 1003.5 hPa 1.9 m/s 4.2 mm 21.5° 1003.7 hPa 3.3 m/s 7.0 mm 19.1° 1006.0 hPa 1.6 m/s 2.3 mm 20.5° 1002.9 hPa 1.0 m/s 0.0 mm 18.1° 1005.9 hPa 1.1 m/s
08:00 20.2° 1004.1 hPa 1.5 m/s 6.3 mm 21.4° 1003.5 hPa 1.9 m/s 17.6 mm 18.3° 1006.4 hPa 1.2 m/s 5.1 mm 20.2° 1003.3 hPa 1.4 m/s 0.0 mm 19.0° 1005.8 hPa 0.9 m/s
11:00 22.3° 1004.9 hPa 3.0 m/s 5.0 mm 24.8° 1004.1 hPa 1.7 m/s 19.2 mm 19.6° 1007.1 hPa 1.6 m/s 1.2 mm 24.6° 1004.3 hPa 3.4 m/s 0.0 mm 20.2° 1006.4 hPa 1.5 m/s
14:00 25.1° 1004.7 hPa 1.4 m/s 0.0 mm 28.2° 1002.9 hPa 1.4 m/s 19.2 mm 22.9° 1006.8 hPa 1.0 m/s 0.1 mm 27.0° 1004.6 hPa 3.9 m/s 0.0 mm 23.6° 1005.8 hPa 2.1 m/s
17:00 25.7° 1004.8 hPa 1.6 m/s 1.5 mm 28.5° 1003.5 hPa 5.7 m/s 19.8 mm 23.9° 1006.3 hPa 0.5 m/s 0.3 mm 27.4° 1004.8 hPa 2.9 m/s 0.0 mm 24.1° 1005.4 hPa 3.2 m/s
20:00 23.2° 1005.7 hPa 1.9 m/s 4.4 mm 26.6° 1005.2 hPa 2.1 m/s 20.5 mm 21.2° 1007.0 hPa 2.0 m/s 0.9 mm 24.9° 1005.5 hPa 1.9 m/s 0.0 mm 19.1° 1007.2 hPa 1.8 m/s
23:00 20.9° 1007.6 hPa 1.4 m/s 0.0 mm 23.6° 1007.4 hPa 2.5 m/s 20.6 mm 19.0° 1008.3 hPa 0.9 m/s 0.0 mm 21.6° 1007.8 hPa 2.1 m/s 0.0 mm 17.4° 1008.3 hPa 2.0 m/s
 06:10     20:49    Daglengte: 14:39 Maandag 02 Aug
02:00 18.8° 1008.3 hPa 1.4 m/s 0.0 mm 21.3° 1008.7 hPa 1.2 m/s 20.6 mm 18.1° 1008.9 hPa 0.7 m/s 0.0 mm 18.6° 1008.3 hPa 2.4 m/s 0.0 mm 16.7° 1009.4 hPa 1.1 m/s
05:00 17.5° 1009.1 hPa 1.0 m/s 0.0 mm 20.2° 1009.4 hPa 0.5 m/s 20.6 mm 17.3° 1009.2 hPa 0.6 m/s 0.0 mm 16.4° 1009.4 hPa 1.9 m/s 0.0 mm 15.8° 1010.0 hPa 0.7 m/s
08:00 18.3° 1010.9 hPa 0.9 m/s 0.0 mm 20.4° 1011.4 hPa 0.6 m/s 20.6 mm 18.2° 1011.1 hPa 1.0 m/s 0.0 mm 16.9° 1011.2 hPa 0.5 m/s 0.0 mm 17.3° 1012.2 hPa 1.0 m/s
11:00 22.6° 1012.2 hPa 1.4 m/s 0.0 mm 24.5° 1012.4 hPa 1.7 m/s 20.6 mm 22.4° 1012.4 hPa 1.3 m/s 0.1 mm 22.4° 1012.6 hPa 1.3 m/s 0.0 mm 22.5° 1013.1 hPa 1.0 m/s
14:00 25.4° 1011.7 hPa 1.7 m/s 0.0 mm 27.7° 1011.9 hPa 1.6 m/s 20.6 mm 24.9° 1011.9 hPa 1.8 m/s 0.0 mm 25.5° 1012.5 hPa 1.8 m/s 0.0 mm 25.9° 1012.4 hPa 1.5 m/s
17:00 26.4° 1010.8 hPa 1.2 m/s 0.0 mm 29.1° 1010.8 hPa 3.1 m/s 20.6 mm 26.2° 1011.7 hPa 0.9 m/s 0.0 mm 26.6° 1011.7 hPa 1.4 m/s
20:00 25.5° 1010.7 hPa 1.4 m/s 0.0 mm 28.4° 1010.7 hPa 2.8 m/s 20.6 mm 25.4° 1011.5 hPa 1.4 m/s 0.0 mm 23.6° 1012.2 hPa 1.3 m/s
23:00 21.4° 1012.8 hPa 2.6 m/s 7.1 mm 25.4° 1012.7 hPa 3.4 m/s 20.6 mm 20.9° 1013.8 hPa 3.0 m/s 0.0 mm 19.3° 1014.6 hPa 1.2 m/s
 06:12     20:48    Daglengte: 14:36 Dinsdag 03 Aug
02:00 19.3° 1013.6 hPa 2.0 m/s 6.7 mm 23.2° 1013.4 hPa 3.3 m/s 20.6 mm 18.7° 1015.0 hPa 1.9 m/s 1.3 mm 17.2° 1015.7 hPa 0.8 m/s
05:00 18.9° 1013.5 hPa 1.8 m/s 8.8 mm 21.4° 1013.6 hPa 1.5 m/s 20.6 mm 18.2° 1014.6 hPa 1.3 m/s 3.0 mm 16.7° 1015.2 hPa 1.3 m/s
08:00 19.1° 1014.7 hPa 2.8 m/s 8.2 mm 21.2° 1014.9 hPa 3.4 m/s 20.6 mm 18.2° 1015.6 hPa 1.3 m/s 1.7 mm 17.6° 1016.4 hPa 0.4 m/s
11:00 22.1° 1014.0 hPa 2.7 m/s 7.6 mm 25.1° 1014.0 hPa 2.8 m/s 20.6 mm 19.6° 1015.7 hPa 1.2 m/s 2.2 mm 21.6° 1015.7 hPa 1.1 m/s
14:00 23.6° 1011.9 hPa 2.4 m/s 6.0 mm 28.4° 1011.5 hPa 3.3 m/s 20.6 mm 21.8° 1014.5 hPa 0.9 m/s 2.1 mm 25.2° 1013.9 hPa 1.2 m/s
17:00 22.6° 1012.9 hPa 3.1 m/s 10.6 mm 24.1° 1011.2 hPa 10.6 m/s 24.4 mm 22.2° 1013.3 hPa 1.2 m/s 3.8 mm 24.8° 1012.6 hPa 0.9 m/s
20:00 21.9° 1012.5 hPa 0.4 m/s 16.1 mm 25.2° 1010.8 hPa 1.3 m/s 40.2 mm 21.0° 1013.0 hPa 0.1 m/s 4.0 mm 21.9° 1012.1 hPa 1.8 m/s
23:00 24.3° 1011.4 hPa 1.5 m/s 40.6 mm 24.3° 1011.4 hPa 1.5 m/s 40.6 mm 20.0° 1012.9 hPa 1.5 m/s
 06:13     20:47    Daglengte: 14:34 Woensdag 04 Aug
02:00 22.6° 1011.7 hPa 1.0 m/s 40.6 mm 22.6° 1011.7 hPa 1.0 m/s 40.6 mm 18.8° 1012.9 hPa 1.3 m/s
05:00 18.6° 1012.1 hPa 0.2 m/s 30.9 mm 18.6° 1012.1 hPa 0.2 m/s 30.9 mm
08:00 18.4° 1012.8 hPa 1.0 m/s 32.6 mm 18.4° 1012.8 hPa 1.0 m/s 32.6 mm
11:00 18.3° 1013.2 hPa 1.0 m/s 34.8 mm 18.3° 1013.2 hPa 1.0 m/s 34.8 mm
14:00 20.2° 1012.7 hPa 2.0 m/s 36.3 mm 20.2° 1012.7 hPa 2.0 m/s 36.3 mm
17:00 23.1° 1011.5 hPa 1.0 m/s 38.0 mm 23.1° 1011.5 hPa 1.0 m/s 38.0 mm
20:00 20.6° 1010.5 hPa 1.4 m/s 42.1 mm 20.6° 1010.5 hPa 1.4 m/s 42.1 mm
23:00 18.3° 1010.8 hPa 1.4 m/s 44.9 mm 18.3° 1010.8 hPa 1.4 m/s 44.9 mm
 06:14     20:45    Daglengte: 14:31 Donderdag 05 Aug
02:00 16.9° 1010.7 hPa 1.5 m/s 49.9 mm 16.9° 1010.7 hPa 1.5 m/s 49.9 mm
05:00 15.9° 1010.6 hPa 0.9 m/s 50.5 mm 15.9° 1010.6 hPa 0.9 m/s 50.5 mm
08:00 16.9° 1011.2 hPa 0.8 m/s 50.5 mm 16.9° 1011.2 hPa 0.8 m/s 50.5 mm
11:00 21.7° 1010.9 hPa 0.7 m/s 50.5 mm 21.7° 1010.9 hPa 0.7 m/s 50.5 mm
14:00 24.6° 1009.8 hPa 0.5 m/s 50.5 mm 24.6° 1009.8 hPa 0.5 m/s 50.5 mm
17:00 24.4° 1008.0 hPa 0.7 m/s 50.5 mm 24.4° 1008.0 hPa 0.7 m/s 50.5 mm
20:00 21.7° 1007.8 hPa 1.5 m/s 50.5 mm 21.7° 1007.8 hPa 1.5 m/s 50.5 mm
23:00 20.0° 1007.3 hPa 0.9 m/s 50.5 mm 20.0° 1007.3 hPa 0.9 m/s 50.5 mm
 06:15     20:44    Daglengte: 14:29 Vrijdag 06 Aug
02:00 18.3° 1007.4 hPa 1.4 m/s 50.5 mm 18.3° 1007.4 hPa 1.4 m/s 50.5 mm
05:00 17.0° 1006.9 hPa 0.4 m/s 50.5 mm 17.0° 1006.9 hPa 0.4 m/s 50.5 mm
08:00 18.1° 1007.8 hPa 1.2 m/s 50.5 mm 18.1° 1007.8 hPa 1.2 m/s 50.5 mm
11:00 22.8° 1008.3 hPa 1.5 m/s 50.5 mm 22.8° 1008.3 hPa 1.5 m/s 50.5 mm
14:00 26.5° 1007.1 hPa 1.1 m/s 50.5 mm 26.5° 1007.1 hPa 1.1 m/s 50.5 mm
17:00 27.2° 1006.1 hPa 0.9 m/s 50.5 mm 27.2° 1006.1 hPa 0.9 m/s 50.5 mm
20:00 24.0° 1006.6 hPa 0.4 m/s 50.5 mm 24.0° 1006.6 hPa 0.4 m/s 50.5 mm
23:00 21.0° 1009.1 hPa 1.5 m/s 50.5 mm 21.0° 1009.1 hPa 1.5 m/s 50.5 mm
 06:16     20:42    Daglengte: 14:26 Zaterdag 07 Aug
02:00 19.3° 1010.6 hPa 2.3 m/s 50.5 mm 19.3° 1010.6 hPa 2.3 m/s 50.5 mm
05:00 18.6° 1011.1 hPa 1.7 m/s 50.5 mm 18.6° 1011.1 hPa 1.7 m/s 50.5 mm
08:00 19.9° 1012.5 hPa 0.6 m/s 50.5 mm 19.9° 1012.5 hPa 0.6 m/s 50.5 mm
11:00 24.4° 1013.4 hPa 1.2 m/s 50.5 mm 24.4° 1013.4 hPa 1.2 m/s 50.5 mm
14:00 27.4° 1012.7 hPa 0.7 m/s 50.6 mm 27.4° 1012.7 hPa 0.7 m/s 50.6 mm
17:00 27.1° 1012.4 hPa 0.7 m/s 50.6 mm 27.1° 1012.4 hPa 0.7 m/s 50.6 mm
20:00 25.0° 1012.7 hPa 0.8 m/s 50.6 mm 25.0° 1012.7 hPa 0.8 m/s 50.6 mm
23:00 22.5° 1014.3 hPa 1.0 m/s 50.6 mm 22.5° 1014.3 hPa 1.0 m/s 50.6 mm
 06:17     20:41    Daglengte: 14:24 Zondag 08 Aug
02:00 21.4° 1015.0 hPa 0.9 m/s 50.6 mm 21.4° 1015.0 hPa 0.9 m/s 50.6 mm
08:00 21.8° 1015.9 hPa 0.5 m/s 50.6 mm 21.8° 1015.9 hPa 0.5 m/s 50.6 mm
14:00 30.0° 1015.5 hPa 0.6 m/s 50.6 mm 30.0° 1015.5 hPa 0.6 m/s 50.6 mm
20:00 27.2° 1014.1 hPa 1.2 m/s 50.6 mm 27.2° 1014.1 hPa 1.2 m/s 50.6 mm
 06:19     20:39    Daglengte: 14:20 Maandag 09 Aug
02:00 22.1° 1015.5 hPa 2.1 m/s 50.6 mm 22.1° 1015.5 hPa 2.1 m/s 50.6 mm
08:00 22.2° 1016.0 hPa 1.1 m/s 50.6 mm 22.2° 1016.0 hPa 1.1 m/s 50.6 mm
14:00 31.0° 1014.9 hPa 1.7 m/s 50.6 mm 31.0° 1014.9 hPa 1.7 m/s 50.6 mm
20:00 28.0° 1014.5 hPa 1.7 m/s 50.6 mm 28.0° 1014.5 hPa 1.7 m/s 50.6 mm
 06:20     20:38    Daglengte: 14:18 Dinsdag 10 Aug
02:00 20.3° 1019.6 hPa 3.5 m/s 51.0 mm 20.3° 1019.6 hPa 3.5 m/s 51.0 mm
08:00 21.2° 1020.8 hPa 1.4 m/s 51.0 mm 21.2° 1020.8 hPa 1.4 m/s 51.0 mm
14:00 28.9° 1018.9 hPa 1.6 m/s 51.0 mm 28.9° 1018.9 hPa 1.6 m/s 51.0 mm
20:00 29.0° 1016.7 hPa 1.1 m/s 0.2 mm
 06:21     20:36    Daglengte: 14:15 Woensdag 11 Aug
02:00 23.1° 1018.6 hPa 2.2 m/s 0.8 mm
08:00 22.3° 1018.5 hPa 1.1 m/s 0.8 mm
14:00 30.5° 1016.6 hPa 1.3 m/s 0.5 mm
20:00 28.3° 1016.1 hPa 1.0 m/s 0.2 mm
 06:22     20:35    Daglengte: 14:13 Donderdag 12 Aug
02:00 22.6° 1018.0 hPa 2.2 m/s 1.2 mm
08:00 22.2° 1018.1 hPa 0.8 m/s 0.6 mm
14:00 30.0° 1016.7 hPa 1.0 m/s 0.4 mm
20:00 28.0° 1016.5 hPa 1.0 m/s 0.4 mm
 06:23     20:33    Daglengte: 14:10 Vrijdag 13 Aug
02:00 22.4° 1018.5 hPa 1.8 m/s 0.5 mm
08:00 21.8° 1018.6 hPa 0.9 m/s 0.5 mm
14:00 30.7° 1017.1 hPa 0.8 m/s 0.5 mm
20:00 28.3° 1016.7 hPa 0.6 m/s 0.2 mm
 06:25     20:32    Daglengte: 14:07 Zaterdag 14 Aug
02:00 22.8° 1018.7 hPa 1.8 m/s 0.2 mm
08:00 22.2° 1018.4 hPa 0.6 m/s 0.2 mm
14:00 30.8° 1016.3 hPa 1.1 m/s 0.0 mm
20:00 28.6° 1015.7 hPa 0.3 m/s 0.1 mm
 06:26     20:30    Daglengte: 14:04 Zondag 15 Aug
02:00 23.1° 1017.5 hPa 1.8 m/s 0.6 mm
08:00 22.4° 1017.1 hPa 0.8 m/s 0.6 mm
14:00 31.1° 1015.0 hPa 0.7 m/s 0.3 mm
20:00 28.9° 1014.6 hPa 1.0 m/s 0.1 mm
FMI Hirlam - 7.5 km EWN WRFDA - 12 km DWD ICON - 7 km GFS - 25 km Basiskaart






























































Updatetijd (Europe/Amsterdam) Resolutie Lengte Stap
FMI Hirlam 19:00, 01:00, 07:00, 13:00 7.5 km 49h 1h
EWN WRFDA 22:15, 04:15, 10:15, 16:15 12 km 73h 1h
DWD ICON 18:15, 00:15, 06:15, 12:15 7 km 75h 1h
GFS 20:15, 02:15, 08:15, 14:15 25 km 237h 3h
30+ mm
25-30 mm
20-25 mm
15-20 mm
10-15 mm
6-10 mm
4-6 mm
2-4 mm
1-2 mm
0.5-1 mm
0.2-0.5 mm
0.1-0.2 mm
30+ mm
25-30 mm
20-25 mm
15-20 mm
10-15 mm
6-10 mm
4-6 mm
2-4 mm
1-2 mm
0.5-1 mm
0.2-0.5 mm
0.1-0.2 mm
Sneeuwval
Natte sneeuw
Hagel
Vorst
<
30+ mm
25-30 mm
20-25 mm
15-20 mm
10-15 mm
6-10 mm
4-6 mm
2-4 mm
1-2 mm
0.5-1 mm
0.2-0.5 mm
0.1-0.2 mm
Sneeuwval
Natte sneeuw
Hagel